TimePST,TemperatureF,Dew PointF,Humidity,Sea Level PressureIn,VisibilityMPH,Wind Direction,Wind SpeedMPH,Gust SpeedMPH,PrecipitationIn,Events,Conditions,WindDirDegrees,DateUTC
12:56 AM,34.0,10.0,37,30.40,10.0,Calm,Calm,-,N/A,,Clear,0,2013-02-28 08:56:00
1:56 AM,28.9,7.0,40,30.39,10.0,Calm,Calm,-,N/A,,Clear,0,2013-02-28 09:56:00
2:56 AM,30.9,9.0,40,30.38,10.0,Calm,Calm,-,N/A,,Clear,0,2013-02-28 10:56:00
3:56 AM,27.0,10.9,51,30.40,10.0,NW,3.5,-,N/A,,Clear,320,2013-02-28 11:56:00
4:56 AM,27.0,9.0,47,30.41,10.0,SW,4.6,-,N/A,,Clear,230,2013-02-28 12:56:00
5:56 AM,26.1,8.1,47,30.43,10.0,Calm,Calm,-,N/A,,Clear,0,2013-02-28 13:56:00
6:56 AM,23.0,7.0,50,30.45,10.0,NW,3.5,-,N/A,,Clear,310,2013-02-28 14:56:00
7:56 AM,35.1,10.9,37,30.46,10.0,Calm,Calm,-,N/A,,Clear,0,2013-02-28 15:56:00
8:56 AM,48.0,12.9,24,30.46,-9999.0,Calm,Calm,-,N/A,,Clear,0,2013-02-28 16:56:00
9:56 AM,52.0,10.9,19,30.46,-9999.0,Calm,Calm,-,N/A,,Clear,0,2013-02-28 17:56:00
10:56 AM,57.9,7.0,13,30.45,-9999.0,Calm,Calm,-,N/A,,Clear,0,2013-02-28 18:56:00
11:56 AM,63.0,6.1,11,30.43,-9999.0,Variable,3.5,-,N/A,,Clear,0,2013-02-28 19:56:00
12:56 PM,64.9,3.9,9,30.39,-9999.0,NNE,6.9,-,N/A,,Clear,30,2013-02-28 20:56:00
1:56 PM,66.9,1.9,8,30.38,-9999.0,ENE,6.9,-,N/A,,Clear,60,2013-02-28 21:56:00
2:56 PM,68.0,1.9,7,30.36,-9999.0,ENE,6.9,-,N/A,,Clear,60,2013-02-28 22:56:00
3:56 PM,68.0,3.0,8,30.36,-9999.0,ENE,5.8,-,N/A,,Clear,60,2013-02-28 23:56:00
4:56 PM,66.9,3.9,8,30.36,-9999.0,NE,5.8,-,N/A,,Clear,50,2013-03-01 00:56:00
5:56 PM,59.0,3.9,11,30.39,-9999.0,NNE,5.8,-,N/A,,Clear,20,2013-03-01 01:56:00
6:56 PM,52.0,3.0,14,30.42,-9999.0,North,4.6,-,N/A,,Clear,10,2013-03-01 02:56:00
7:56 PM,45.0,5.0,19,30.43,-9999.0,WNW,6.9,-,N/A,,Clear,290,2013-03-01 03:56:00
8:56 PM,46.0,19.9,35,30.43,-9999.0,West,9.2,-,N/A,,Clear,280,2013-03-01 04:56:00
9:56 PM,46.0,16.0,30,30.43,-9999.0,Calm,Calm,-,N/A,,Clear,0,2013-03-01 05:56:00
10:56 PM,48.0,25.0,41,30.42,-9999.0,West,4.6,-,N/A,,Clear,270,2013-03-01 06:56:00
11:56 PM,46.0,21.0,37,30.42,-9999.0,WNW,3.5,-,N/A,,Clear,290,2013-03-01 07:56:00